Flag for Germany Weather past 2 weeks in Jülich, North Rhine-Westphalia, Germany

Now
63 °F

Broken clouds.


Feels Like: 63 °F
Forecast: 47 / 69 °F
Wind: 5 mph from Northwest

Location: Geilenkirchen Airport

Current Time: Jul 30, 2015 at 6:47:53 PM

Latest Report: Jul 30, 2015 at 5:50 PM


Visibility: N/A

Pressure: 30.04 "Hg

Humidity: 59%

Dew point: 48 °F

Location of JülichLocation

Historic Weather in Jülich — Graph

°F

Jülich temperature yesterday

Maximum temperature yesterday: 66 °F (at 4:50 PM)
Minimum temperature yesterday: 54 °F (at 6:50 AM)
Average temperature yesterday: 59 °F

Past Weeks' High & Low Weather Summary

 TemperatureHumidityPressure
High90 °F (Jul 17, 3:50 PM)100% (Jul 16, 5:50 AM)30.12 "Hg (Jul 16, 5:50 AM)
Low54 °F (Jul 29, 6:50 AM)36% (Jul 17, 3:50 PM)29.56 "Hg (Jul 27, 3:50 AM)
Average67 °F69%29.90 "Hg
* Reported Jul 15 4:50 PM — Jul 30 4:50 PM, Jülich, Weather by CustomWeather, © 2015

Note: Actual official high and low records may vary slightly from our data, if they occured in-between our weather recording intervals... More about our weather records

Advertising

Jülich weather history for previous 24 hours

 ConditionsComfort  
Time TempWeatherWind HumidityBarometerVisibility
4:50 PM
Thu, Jul 30
63 °FBroken clouds.7 mph59%30.04 "HgN/A
3:50 PM63 °FScattered clouds.14 mph68%30.04 "HgN/A
2:50 PM61 °FScattered showers. Scattered clouds.9 mph63%30.01 "HgN/A
1:50 PM64 °FScattered clouds.9 mph60%30.01 "HgN/A
12:50 PM64 °FScattered clouds.8 mph60%30.01 "HgN/A
11:50 AM61 °FScattered clouds.8 mph68%30.01 "HgN/A
10:50 AM59 °FBroken clouds.12 mph72%30.01 "HgN/A
9:50 AM55 °FLight rain. Partly sunny.8 mph88%30.01 "HgN/A
8:50 AM55 °FBroken clouds.12 mph82%29.98 "HgN/A
7:50 AM54 °FScattered showers. Partly sunny.7 mph88%29.98 "HgN/A
6:50 AM54 °FSprinkles. Partly cloudy.8 mph88%29.98 "HgN/A
5:50 AM54 °FClear.8 mph82%29.95 "Hg10 mi
4:50 AM54 °FClear.7 mph82%29.95 "Hg10 mi
3:50 AM54 °FClear.8 mph77%29.95 "Hg10 mi
2:50 AM54 °FClear.9 mph77%29.95 "Hg10 mi
1:50 AM54 °FClear.6 mph77%29.95 "Hg10 mi
12:50 AM55 °FClear.2 mph72%29.95 "Hg10 mi
11:50 PM
Wed, Jul 29
55 °FClear.3 mph77%29.92 "Hg10 mi
10:50 PM55 °FClear.1 mph77%29.92 "Hg10 mi
9:50 PM57 °FSunny.3 mph72%29.92 "Hg10 mi
8:50 PM59 °FSunny.7 mph63%29.89 "Hg10 mi
7:50 PM63 °FSunny.17 mph49%29.89 "Hg10 mi
6:50 PM66 °FSunny.21 mph43%29.86 "Hg10 mi
Weather by CustomWeather, © 2015

See weather overviewHow to use our weather pages